| time (UTC) | temp F | wind direction | speed MPH | gust MPH | rain 1hr in | rain 24hr in | rain mn in | humidity % | barometer mb |
| 20260906114525 | 64 | 82 | 0.0 | 0.0 | 0.00 | 0.00 | 0.00 | 99 | 1046.0 |
| 20260906113022 | 64 | 82 | 0.0 | 0.0 | 0.00 | 0.00 | 0.00 | 99 | 1045.4 |
| 20260906111518 | 64 | 109 | 0.0 | 2.0 | 0.00 | 0.00 | 0.00 | 99 | 1045.5 |
| 20260906110019 | 64 | 150 | 0.0 | 0.0 | 0.00 | 0.00 | 0.00 | 99 | 1045.5 |
| 20260906104514 | 65 | 95 | 0.0 | 2.0 | 0.00 | 0.00 | 0.00 | 99 | 1045.5 |
| 20260906103014 | 64 | 99 | 0.0 | 0.0 | 0.00 | 0.00 | 0.00 | 99 | 1045.4 |
| 20260906101515 | 65 | 126 | 1.0 | 2.0 | 0.00 | 0.00 | 0.00 | 99 | 1045.4 |
| 20260906100012 | 65 | 111 | 0.0 | 1.0 | 0.00 | 0.00 | 0.00 | 99 | 1045.1 |
| 20260906094507 | 65 | 94 | 0.0 | 2.0 | 0.00 | 0.00 | 0.00 | 99 | 1044.9 |
| 20260906093005 | 65 | 90 | 0.0 | 0.0 | 0.00 | 0.00 | 0.00 | 99 | 1045.0 |
| 20260906091501 | 65 | 90 | 0.0 | 0.0 | 0.00 | 0.00 | 0.00 | 99 | 1045.0 |
| 20260906085958 | 65 | 126 | 0.0 | 0.0 | 0.00 | 0.00 | 0.00 | 99 | 1045.0 |
| 20260906084458 | 65 | 340 | 0.0 | 0.0 | 0.00 | 0.00 | 0.00 | 99 | 1045.0 |
| 20260906082957 | 65 | 345 | 0.0 | 0.0 | 0.00 | 0.00 | 0.00 | 99 | 1044.9 |
| 20260906081455 | 65 | 345 | 0.0 | 0.0 | 0.00 | 0.00 | 0.00 | 99 | 1045.0 |
| 20260906075955 | 64 | 345 | 0.0 | 0.0 | 0.00 | 0.00 | 0.00 | 98 | 1044.8 |
| 20260906074450 | 64 | 270 | 0.0 | 0.0 | 0.00 | 0.00 | 0.00 | 98 | 1044.8 |
| 20260906072946 | 64 | 270 | 0.0 | 0.0 | 0.00 | 0.00 | 0.00 | 98 | 1044.9 |
| 20260906071445 | 65 | 261 | 0.0 | 0.0 | 0.00 | 0.00 | 0.00 | 98 | 1044.8 |
| 20260906065943 | 65 | 261 | 0.0 | 0.0 | 0.00 | 0.00 | 0.00 | 98 | 1044.8 |
| 20260906064441 | 65 | 188 | 0.0 | 1.0 | 0.00 | 0.00 | 0.00 | 98 | 1044.9 |
| 20260906062937 | 66 | 196 | 0.0 | 0.0 | 0.00 | 0.00 | 0.00 | 98 | 1044.9 |
| 20260906061435 | 66 | 172 | 0.0 | 0.0 | 0.00 | 0.00 | 0.00 | 98 | 1045.0 |
| 20260906055934 | 66 | 165 | 0.0 | 0.0 | 0.00 | 0.00 | 0.00 | 98 | 1044.9 |
| 20260906054432 | 66 | 180 | 0.0 | 1.0 | 0.00 | 0.00 | 0.00 | 98 | 1044.9 |
| 20260906052930 | 66 | 123 | 0.0 | 0.0 | 0.00 | 0.00 | 0.00 | 98 | 1044.9 |
| 20260906051429 | 66 | 98 | 0.0 | 0.0 | 0.00 | 0.00 | 0.00 | 98 | 1044.7 |
| 20260906045924 | 67 | 98 | 0.0 | 0.0 | 0.00 | 0.00 | 0.00 | 97 | 1044.5 |
| 20260906044419 | 67 | 345 | 0.0 | 0.0 | 0.00 | 0.00 | 0.00 | 97 | 1044.6 |
| 20260906042918 | 67 | 123 | 0.0 | 0.0 | 0.00 | 0.00 | 0.00 | 97 | 1044.3 |
| 20260906041414 | 67 | 99 | 0.0 | 0.0 | 0.00 | 0.00 | 0.00 | 97 | 1044.3 |
| 20260906035911 | 68 | 99 | 0.0 | 3.0 | 0.00 | 0.00 | 0.00 | 96 | 1044.1 |
| 20260906034407 | 68 | 90 | 0.0 | 0.0 | 0.00 | 0.00 | 0.00 | 96 | 1044.1 |
| 20260906032904 | 68 | 66 | 0.0 | 3.0 | 0.00 | 0.00 | 0.00 | 96 | 1043.8 |
| 20260906031402 | 68 | 103 | 0.0 | 1.0 | 0.00 | 0.00 | 0.00 | 95 | 1043.8 |
| 20260906025858 | 68 | 90 | 0.0 | 2.0 | 0.00 | 0.00 | 0.00 | 95 | 1044.1 |
| 20260906024356 | 68 | 61 | 2.0 | 3.0 | 0.00 | 0.00 | 0.00 | 95 | 1043.7 |
| 20260906022854 | 69 | 330 | 4.0 | 4.0 | 0.00 | 0.00 | 0.00 | 94 | 1043.8 |
| 20260906021350 | 69 | 126 | 1.0 | 4.0 | 0.00 | 0.00 | 0.00 | 93 | 1043.7 |
| 20260906015845 | 69 | 165 | 0.0 | 1.0 | 0.00 | 0.00 | 0.00 | 93 | 1043.7 |
| 20260906014344 | 70 | 90 | 0.0 | 3.0 | 0.00 | 0.00 | 0.00 | 92 | 1043.8 |
| 20260906012843 | 70 | 7 | 0.0 | 3.0 | 0.00 | 0.00 | 0.00 | 92 | 1044.1 |
| 20260906011339 | 71 | 77 | 0.0 | 3.0 | 0.00 | 0.00 | 0.00 | 92 | 1044.0 |
| 20260906005838 | 71 | 139 | 0.0 | 5.0 | 0.00 | 0.00 | 0.00 | 92 | 1043.8 |
| 20260906004336 | 71 | 254 | 0.0 | 3.0 | 0.00 | 0.00 | 0.00 | 92 | 1043.7 |
| 20260906002833 | 71 | 121 | 2.0 | 4.0 | 0.00 | 0.00 | 0.00 | 92 | 1043.3 |
| 20260906001329 | 71 | 315 | 0.0 | 2.0 | 0.00 | 0.00 | 0.00 | 92 | 1043.5 |
| 20260905235825 | 71 | 90 | 0.0 | 4.0 | 0.00 | 0.00 | 0.00 | 92 | 1043.3 |
| 20260905234321 | 71 | 101 | 0.0 | 5.0 | 0.00 | 0.00 | 0.00 | 91 | 1043.7 |
| 20260905232816 | 72 | 15 | 0.0 | 4.0 | 0.00 | 0.00 | 0.00 | 90 | 1043.5 |
| 20260905231315 | 72 | 70 | 4.0 | 5.0 | 0.00 | 0.00 | 0.00 | 89 | 1043.4 |
| 20260905225815 | 73 | 63 | 3.0 | 7.0 | 0.00 | 0.00 | 0.00 | 89 | 1043.1 |
| 20260905224311 | 73 | 74 | 0.0 | 6.0 | 0.00 | 0.00 | 0.00 | 88 | 1043.1 |
| 20260905222810 | 75 | 355 | 0.0 | 4.0 | 0.00 | 0.00 | 0.00 | 87 | 1042.9 |
| 20260905221308 | 76 | 8 | 0.0 | 3.0 | 0.00 | 0.00 | 0.00 | 84 | 1043.1 |
| 20260905215804 | 76 | 355 | 0.0 | 2.0 | 0.00 | 0.00 | 0.00 | 86 | 1042.7 |
| 20260905214303 | 77 | 324 | 2.0 | 2.0 | 0.00 | 0.00 | 0.00 | 85 | 1042.8 |
| 20260905212800 | 78 | 135 | 0.0 | 9.0 | 0.00 | 0.00 | 0.00 | 83 | 1042.4 |
| 20260905211255 | 78 | 147 | 0.0 | 7.0 | 0.00 | 0.00 | 0.00 | 81 | 1042.2 |
| 20260905205751 | 80 | 81 | 0.0 | 2.0 | 0.00 | 0.00 | 0.00 | 82 | 1042.3 |
| 20260905204247 | 77 | 99 | 1.0 | 3.0 | 0.00 | 0.00 | 0.00 | 84 | 1042.0 |
| 20260905202743 | 80 | 334 | 2.0 | 6.0 | 0.00 | 0.00 | 0.00 | 80 | 1042.2 |
| 20260905201240 | 82 | 195 | 0.0 | 2.0 | 0.00 | 0.00 | 0.00 | 75 | 1042.2 |
| 20260905195741 | 80 | 243 | 0.0 | 3.0 | 0.00 | 0.00 | 0.00 | 78 | 1042.2 |
| 20260905194236 | 80 | 301 | 0.0 | 5.0 | 0.00 | 0.00 | 0.00 | 80 | 1042.2 |
| 20260905192733 | 79 | 301 | 2.0 | 5.0 | 0.00 | 0.00 | 0.00 | 81 | 1042.5 |
| 20260905191232 | 81 | 5 | 2.0 | 2.0 | 0.00 | 0.00 | 0.00 | 79 | 1042.7 |
| 20260905185729 | 79 | 323 | 2.0 | 4.0 | 0.00 | 0.00 | 0.00 | 83 | 1042.9 |
| 20260905184229 | 77 | 0 | 2.0 | 3.0 | 0.00 | 0.00 | 0.00 | 84 | 1042.9 |
| 20260905182724 | 77 | 255 | 0.0 | 8.0 | 0.00 | 0.00 | 0.00 | 85 | 1043.0 |
| 20260905181224 | 76 | 11 | 2.0 | 4.0 | 0.00 | 0.00 | 0.00 | 86 | 1042.8 |
| 20260905175720 | 76 | 352 | 0.0 | 4.0 | 0.00 | 0.00 | 0.00 | 87 | 1042.7 |
| 20260905174218 | 76 | 82 | 1.0 | 2.0 | 0.00 | 0.00 | 0.00 | 87 | 1042.6 |
| 20260905172714 | 75 | 261 | 0.0 | 3.0 | 0.00 | 0.00 | 0.00 | 89 | 1043.1 |
| 20260905171212 | 75 | 97 | 0.0 | 2.0 | 0.00 | 0.00 | 0.00 | 89 | 1042.8 |
| 20260905165709 | 75 | 105 | 1.0 | 2.0 | 0.00 | 0.00 | 0.00 | 89 | 1042.9 |
| 20260905164204 | 75 | 306 | 0.0 | 3.0 | 0.00 | 0.00 | 0.00 | 88 | 1043.3 |
| 20260905162704 | 75 | 90 | 0.0 | 3.0 | 0.00 | 0.00 | 0.00 | 88 | 1042.8 |
| 20260905161203 | 74 | 75 | 0.0 | 4.0 | 0.00 | 0.00 | 0.00 | 90 | 1043.1 |
| 20260905155701 | 75 | 286 | 0.0 | 3.0 | 0.00 | 0.00 | 0.00 | 89 | 1043.1 |
| 20260905154157 | 75 | 114 | 0.0 | 3.0 | 0.00 | 0.00 | 0.00 | 90 | 1042.8 |
| 20260905152654 | 75 | 45 | 0.0 | 4.0 | 0.00 | 0.00 | 0.00 | 90 | 1042.7 |
| 20260905151151 | 74 | 75 | 0.0 | 1.0 | 0.00 | 0.00 | 0.00 | 90 | 1042.4 |
| 20260905145648 | 75 | 123 | 2.0 | 3.0 | 0.00 | 0.00 | 0.00 | 91 | 1042.5 |
| 20260905144148 | 74 | 103 | 0.0 | 3.0 | 0.00 | 0.00 | 0.00 | 92 | 1042.5 |
| 20260905142647 | 74 | 140 | 0.0 | 2.0 | 0.00 | 0.00 | 0.00 | 91 | 1042.4 |
| 20260905141144 | 74 | 249 | 5.0 | 5.0 | 0.00 | 0.00 | 0.00 | 91 | 1042.1 |
| 20260905135640 | 74 | 135 | 2.0 | 3.0 | 0.00 | 0.00 | 0.00 | 93 | 1042.0 |
| 20260905134134 | 73 | 337 | 0.0 | 6.0 | 0.00 | 0.00 | 0.00 | 95 | 1042.0 |
| 20260905132630 | 72 | 135 | 2.0 | 5.0 | 0.00 | 0.00 | 0.00 | 96 | 1042.0 |
| 20260905131126 | 72 | 195 | 0.0 | 3.0 | 0.00 | 0.00 | 0.00 | 98 | 1042.5 |
| 20260905125626 | 72 | 352 | 0.0 | 2.0 | 0.00 | 0.00 | 0.00 | 98 | 1041.6 |
| 20260905124126 | 72 | 352 | 0.0 | 2.0 | 0.00 | 0.00 | 0.00 | 99 | 1041.7 |
| 20260905122624 | 72 | 0 | 1.0 | 5.0 | 0.00 | 0.00 | 0.00 | 99 | 1041.2 |
| 20260905121120 | 71 | 154 | 0.0 | 2.0 | 0.00 | 0.00 | 0.00 | 99 | 1041.1 |